Total_Precipitation_Accumulation
0.01 0.02 0.03 0.03 0.04 0.06 0.09 0.18 0.24 0.25 0.30 0.34 0.43 0.51 0.82 1.05 1.15 1.28 1.44 1.69 1.87 2.03 2.09 2.25 2.54 2.77 2.93 3.09 3.32 3.63 4.05 4.38 4.48 4.31 4.23 4.17 3.86 3.54 3.18 2.90 2.86 2.98 2.89 2.96
0.02 0.03 0.03 0.04 0.04 0.07 0.11 0.19 0.26 0.30 0.33 0.32 0.47 0.59 0.84 1.28 1.43 1.38 1.41 1.44 1.50 1.95 2.15 2.34 2.59 2.72 2.72 2.91 3.21 3.63 4.08 4.39 4.29 4.39 4.60 4.55 4.31 3.62 3.25 3.07 3.02 2.96 2.87 2.85
0.03 0.04 0.03 0.04 0.06 0.09 0.13 0.17 0.24 0.29 0.39 0.37 0.49 0.88 1.08 1.37 1.52 1.40 1.36 1.37 1.32 1.51 1.81 1.95 2.11 2.30 2.53 2.94 3.35 3.62 3.95 4.12 4.15 4.35 4.48 4.18 3.98 3.49 3.36 3.35 3.19 3.03 3.00 2.99
0.03 0.03 0.03 0.06 0.08 0.09 0.13 0.12 0.15 0.24 0.39 0.55 0.62 1.23 1.52 1.70 1.58 1.32 1.35 1.40 1.49 1.60 1.68 1.81 1.85 2.14 2.50 2.89 3.46 3.86 3.91 3.99 3.88 3.99 4.09 3.92 3.58 3.33 3.24 3.23 3.00 2.89 2.81 2.81
0.06 0.04 0.04 0.05 0.07 0.08 0.10 0.10 0.12 0.21 0.33 0.54 0.69 1.08 1.56 1.64 1.53 1.25 1.15 1.35 1.58 1.56 1.61 1.84 1.78 1.95 2.21 2.62 3.02 3.42 3.77 3.85 3.66 3.59 3.63 3.77 3.61 3.34 3.12 3.02 2.92 2.85 2.82 2.65
0.09 0.07 0.06 0.06 0.07 0.07 0.08 0.10 0.18 0.30 0.51 0.88 0.69 0.82 1.25 1.50 1.39 1.14 1.15 1.29 1.45 1.60 1.60 1.76 2.01 2.05 2.15 2.43 2.77 3.05 3.29 3.29 3.21 3.16 3.20 3.31 3.37 3.34 3.10 2.89 2.90 2.86 2.72 2.56
0.17 0.17 0.12 0.09 0.09 0.08 0.09 0.19 0.55 0.90 1.21 1.09 0.72 0.81 1.18 1.14 0.99 0.90 0.96 1.22 1.48 1.74 1.74 1.78 1.95 2.03 2.10 2.23 2.40 2.54 2.64 2.68 2.65 2.68 2.66 2.66 2.77 2.84 2.71 2.64 2.70 2.70 2.58 2.46
0.25 0.24 0.18 0.15 0.13 0.11 0.12 0.22 0.60 0.82 0.98 0.94 0.87 1.09 1.17 0.93 0.81 0.81 0.89 1.07 1.35 1.51 1.53 1.62 1.70 1.62 1.63 1.73 1.86 2.01 2.12 2.14 2.09 2.17 2.25 2.26 2.45 2.45 2.43 2.56 2.48 2.51 2.45 2.41
0.14 0.16 0.15 0.15 0.16 0.16 0.20 0.26 0.28 0.47 0.60 0.97 1.17 1.29 1.18 0.87 0.99 0.98 1.06 1.11 1.16 1.20 1.22 1.21 1.24 1.30 1.43 1.49 1.52 1.60 1.78 1.80 1.74 1.79 1.95 2.01 2.06 2.17 2.26 2.33 2.24 2.15 2.18 2.08
0.08 0.12 0.14 0.12 0.12 0.15 0.22 0.34 0.47 0.70 0.94 1.11 1.24 1.50 1.69 1.48 1.39 1.26 1.37 1.59 1.34 1.07 1.07 1.10 1.07 1.12 1.16 1.21 1.30 1.46 1.60 1.74 1.75 1.70 1.74 1.69 1.77 1.88 2.06 2.11 2.02 2.04 2.10 2.06
0.08 0.11 0.14 0.16 0.16 0.21 0.33 0.41 0.52 0.66 0.78 1.05 1.38 1.56 1.36 1.50 1.45 1.38 1.36 1.40 1.28 0.94 0.83 0.91 0.89 0.93 0.98 1.04 1.14 1.30 1.59 1.74 1.68 1.52 1.54 1.60 1.58 1.68 1.80 1.85 1.81 1.91 2.00 2.12
0.11 0.12 0.16 0.20 0.20 0.19 0.28 0.42 0.53 0.70 0.78 0.88 1.12 1.36 1.00 1.14 1.10 1.07 1.13 0.98 0.88 0.81 0.66 0.77 0.82 0.79 0.83 0.88 0.96 1.12 1.33 1.49 1.50 1.46 1.47 1.57 1.66 1.66 1.63 1.63 1.65 1.70 1.74 1.78
0.13 0.17 0.28 0.47 0.45 0.29 0.26 0.29 0.36 0.45 0.59 0.68 0.99 1.29 0.91 0.89 0.99 0.96 0.92 0.91 0.75 0.79 0.74 0.72 0.81 0.81 0.76 0.75 0.88 1.06 1.11 1.30 1.48 1.50 1.48 1.57 1.55 1.52 1.57 1.71 1.76 1.73 1.73 1.72
0.14 0.16 0.24 0.49 0.57 0.45 0.35 0.34 0.35 0.38 0.52 0.56 0.66 0.99 1.00 0.99 0.98 1.01 0.92 0.79 0.66 0.70 0.77 0.74 0.74 0.73 0.63 0.62 0.72 0.90 0.99 1.12 1.28 1.44 1.53 1.66 1.66 1.67 1.76 1.85 1.90 1.85 1.79 1.81
0.14 0.14 0.16 0.23 0.31 0.33 0.31 0.31 0.33 0.35 0.40 0.51 0.59 0.76 0.92 0.92 0.93 1.03 0.93 0.79 0.76 0.65 0.66 0.70 0.66 0.57 0.55 0.56 0.63 0.79 0.92 1.02 1.15 1.41 1.60 1.72 1.77 1.77 1.79 1.78 1.84 1.84 1.74 1.68
0.18 0.19 0.21 0.29 0.33 0.36 0.35 0.34 0.30 0.29 0.27 0.31 0.49 0.73 0.73 0.72 0.77 0.89 0.88 0.92 0.90 0.79 0.63 0.58 0.61 0.60 0.61 0.54 0.54 0.60 0.75 0.90 1.04 1.24 1.40 1.50 1.63 1.75 1.73 1.67 1.70 1.69 1.72 1.73
0.25 0.28 0.33 0.40 0.45 0.52 0.55 0.44 0.42 0.40 0.36 0.39 0.62 0.76 0.62 0.63 0.68 0.70 0.71 0.77 0.82 0.80 0.85 0.82 0.75 0.76 0.67 0.55 0.57 0.59 0.63 0.79 1.01 1.14 1.22 1.33 1.48 1.59 1.62 1.55 1.61 1.69 1.70 1.67
0.30 0.36 0.39 0.43 0.60 0.85 0.64 0.41 0.35 0.35 0.39 0.37 0.48 0.55 0.52 0.55 0.56 0.60 0.67 0.64 0.64 0.57 0.62 0.78 0.85 0.86 0.84 0.74 0.74 0.75 0.75 0.86 1.02 1.14 1.25 1.35 1.48 1.52 1.55 1.55 1.52 1.57 1.56 1.56
0.27 0.41 0.48 0.53 0.66 0.70 0.60 0.49 0.48 0.49 0.51 0.37 0.42 0.47 0.49 0.56 0.60 0.69 0.58 0.50 0.60 0.55 0.61 0.69 0.76 0.85 1.00 1.02 0.97 0.98 1.04 1.10 1.09 1.16 1.29 1.43 1.55 1.60 1.60 1.61 1.57 1.58 1.57 1.53
0.30 0.39 0.53 0.56 0.80 0.89 0.71 0.55 0.59 0.66 0.92 0.61 0.54 0.58 0.60 0.60 0.85 0.93 0.60 0.52 0.72 0.62 0.60 0.67 0.71 0.75 0.92 1.00 0.95 0.98 1.06 1.14 1.14 1.21 1.34 1.47 1.55 1.66 1.64 1.71 1.74 1.71 1.62 1.55
0.58 0.61 0.61 0.62 0.83 0.95 0.67 0.52 0.63 1.10 1.26 0.75 0.66 0.67 0.72 0.74 0.77 0.72 0.59 0.62 0.70 0.62 0.58 0.57 0.65 0.86 0.95 0.98 0.98 1.05 1.08 1.16 1.21 1.35 1.43 1.55 1.64 1.69 1.67 1.73 1.78 1.76 1.71 1.73
0.83 0.82 0.77 0.82 1.07 1.17 0.70 0.62 0.89 1.05 0.80 0.72 0.68 0.63 0.68 0.69 0.62 0.52 0.51 0.55 0.58 0.63 0.63 0.72 0.86 0.98 0.98 1.00 1.12 1.23 1.30 1.28 1.41 1.51 1.49 1.58 1.73 1.59 1.58 1.78 1.85 1.85 1.87 1.85
0.90 0.93 0.97 1.03 1.13 0.98 0.87 0.91 0.99 0.83 0.83 0.74 0.65 0.63 0.58 0.62 0.61 0.55 0.53 0.50 0.55 0.68 0.68 0.78 0.92 0.97 0.99 1.03 1.18 1.42 1.45 1.40 1.44 1.54 1.57 1.59 1.67 1.79 1.86 1.90 1.94 1.90 1.84 1.83
0.99 0.87 1.04 1.17 1.14 1.03 1.01 1.00 0.98 0.90 0.87 0.78 0.67 0.68 0.63 0.67 0.73 0.66 0.61 0.62 0.58 0.62 0.68 0.74 0.90 0.95 1.07 1.16 1.31 1.57 1.61 1.57 1.59 1.65 1.72 1.72 1.72 1.77 1.95 2.11 2.10 2.02 1.87 1.87
1.10 1.07 1.22 1.40 1.33 1.15 1.02 0.88 0.83 0.77 0.73 0.71 0.70 0.71 0.72 0.76 0.79 0.74 0.77 0.78 0.71 0.68 0.70 0.79 0.97 1.11 1.17 1.22 1.30 1.46 1.61 1.76 1.83 1.84 1.83 1.85 1.88 1.92 2.00 2.00 1.96 1.94 1.87 1.77
1.06 1.20 1.46 1.60 1.30 1.15 1.07 0.88 0.86 0.76 0.70 0.70 0.69 0.69 0.77 0.76 0.75 0.73 0.76 0.81 0.78 0.83 0.93 0.94 0.98 1.12 1.21 1.26 1.35 1.47 1.68 1.96 2.17 2.14 2.05 2.03 2.02 2.04 2.01 2.01 1.84 1.68 1.60 1.52